Location: Newark
(34.3481°N, 134.0494°E)
Time: 11:37:11
(UTC+00:00)

Vanguard 3 - Pass Details

Date: 18 January 2020
Orbit: 508 x 3263 km, 33.3° (Epoch: 22 February)

Event Time Altitude Azimuth Distance (km) Brightness Sun altitude
Rises 09:36:31 0° 232° (SW) 7,208 13.2 -15.9°
Reaches altitude 10° 09:41:32 10° 229° (SW) 6,189 12.6 -16.9°
Maximum altitude 10:00:23 59° 156° (SSE) 3,014 9.8 -20.7°
Enters shadow 10:08:32 29° 91° (E) 3,469 9.7 -22.4°
